• MPC Preparation (Info)

  • MPEC 2014-T08 : 2014 SA324

    The following Minor Planet Electronic Circular may be linked-to from your own Web pages, but must not otherwise be redistributed electronically.

    A form allowing access to any MPEC is at the bottom of this page.


    Read MPEC 2014-T07 Read MPEC 2014-T09


    M.P.E.C. 2014-T08                                Issued 2014 Oct. 2, 14:08 UT
    
         The Minor Planet Electronic Circulars contain information on unusual
             minor planets and routine data on comets.  They are published
       on behalf of Commission 20 of the International Astronomical Union by the
              Minor Planet Center, Smithsonian Astrophysical Observatory,
                              Cambridge, MA 02138, U.S.A.
    
                 Prepared using the Tamkin Foundation Computer Network
    
                                  MPC@CFA.HARVARD.EDU
                URL https://www.minorplanetcenter.net/    ISSN 1523-6714
    
                                      2014 SA324
    
    Observations:
         K14SW4A* C2014 09 29.36973 02 33 14.18 +19 25 31.5          21.3 VoET008691
         K14SW4A  C2014 09 29.39008 02 33 16.17 +19 25 28.8          21.0 VoET008691
         K14SW4A  C2014 09 29.41044 02 33 18.18 +19 25 26.0          20.8 VoET008691
         K14SW4A KC2014 09 29.50313 02 33 27.38 +19 25 11.9          21.5 RoET008291
         K14SW4A KC2014 09 29.50538 02 33 27.58 +19 25 12.0          21.3 RoET008291
         K14SW4A KC2014 09 29.50763 02 33 27.83 +19 25 11.6          21.4 RoET008291
         K14SW4A KC2014 09 30.09445 02 34 30.20 +19 23 44.5          20.8  qET008104
         K14SW4A KC2014 09 30.09983 02 34 30.76 +19 23 43.2          21.0  qET008104
         K14SW4A KC2014 09 30.10162 02 34 30.97 +19 23 42.8          20.9  qET008104
         K14SW4A KC2014 09 30.34642 02 34 57.31 +19 23 08.7          20.7 RoET008291
         K14SW4A KC2014 09 30.34931 02 34 57.54 +19 23 08.2          20.6 RoET008291
         K14SW4A KC2014 09 30.35220 02 34 57.86 +19 23 07.7          21.1 RoET008291
         K14SW4A KC2014 09 30.37013802 34 59.18 +19 23 02.3          21.1 VuET008H21
         K14SW4A KC2014 09 30.37709802 34 59.88 +19 23 00.9          21.1 VuET008H21
         K14SW4A KC2014 09 30.38982502 35 01.14 +19 22 58.8                uET008H21
         K14SW4A KC2014 09 30.43637102 35 05.97 +19 22 54.1          21.2 RqET008V37
         K14SW4A KC2014 09 30.44141602 35 06.45 +19 22 53.5          20.9 RqET008V37
         K14SW4A KC2014 09 30.44646202 35 06.95 +19 22 52.3          20.9 RqET008V37
         K14SW4A KC2014 10 01.31660 02 36 39.12 +19 20 20.6          20.6 RoET008291
         K14SW4A KC2014 10 01.31949 02 36 39.40 +19 20 20.0          21.0 RoET008291
         K14SW4A KC2014 10 01.32238 02 36 39.69 +19 20 19.6          20.9 RoET008291
         K14SW4A  C2014 10 02.35527002 38 26.87 +19 16 51.7          20.3 RtET008H01
         K14SW4A  C2014 10 02.35889102 38 27.21 +19 16 51.0          20.6 RtET008H01
         K14SW4A KC2014 10 02.36369 02 38 27.75 +19 16 51.0          20.0 RoET008291
         K14SW4A KC2014 10 02.36815 02 38 28.18 +19 16 49.9          20.5 RoET008291
         K14SW4A  C2014 10 02.37126802 38 28.41 +19 16 48.5          20.6 RtET008H01
         K14SW4A KC2014 10 02.37260 02 38 28.61 +19 16 49.0          20.3 RoET008291
    
    Observer details:
    104 San Marcello Pistoiese.  Observer P. Bacci.  Measurers P. Bacci, L. Tesi,
        G. Fagioli.  0.60-m f/4 reflector + CCD.
    291 LPL/Spacewatch II.  Observers J. V. Scotti, T. H. Bressi, R. S. McMillan.
        1.8-m f/2.7 reflector + CCD.
    691 Steward Observatory, Kitt Peak.  Observer J. V. Scotti.  0.9-m f/3
        reflector + CCD.
    H01 Magdalena Ridge Observatory, Socorro.  Observer W. H. Ryan.  2.4-m f/8.9
        reflector + CCD.
    H21 Astronomical Research Observatory, Westfield.  Observer R. Holmes.
        Measurers L. Buzzi, S. Foglia, T. Vorobjov, T. Linder.  0.81-m f/4.0
        astrograph + CCD.
    V37 McDonald Observatory-LCOGT ELP.  Observer T. Lister.  1.0-m f/8
        Ritchey-Chretien + CCD.
    
    Orbital elements:
    2014 SA324
    Epoch 2014 Dec. 9.0 TT = JDT 2457000.5                  MPC
    M   6.22226              (2000.0)            P               Q
    n   0.21363564     Peri.  197.61202     +0.65909620     -0.75033600
    a   2.7713215      Node   211.21467     +0.70127659     +0.63761926
    e   0.5201473      Incl.    5.63347     +0.27166770     +0.17446368
    P   4.61           H   21.0           G   0.15           U   8
    Residuals in seconds of arc
    140929 691  0.1+  0.0     140930 291  0.2+  0.2+    141001 291  0.2-  0.2+
    140929 691  0.1-  0.0     140930 291  0.5-  0.1+    141001 291  0.2-  0.1+
    140929 691  0.1-  0.1-    140930 291  0.0   0.1+    141001 291  0.1-  0.1+
    140929 291  0.1+  0.4-    140930 H21  0.1+  0.0     141002 H01  0.3+  0.3-
    140929 291  0.3-  0.0     140930 H21  0.3+  0.3-    141002 H01  0.2+  0.3-
    140929 291  0.1+  0.0     140930 H21  0.3+  0.2-    141002 291  0.1-  0.1+
    140930 104  0.1-  0.4+    140930 V37  0.3+  0.1-    141002 291  0.1-  0.0
    140930 104  0.2+  0.0     140930 V37  0.1+  0.2+    141002 H01  0.2+  0.1-
    140930 104  0.7+  0.1-    140930 V37  0.1+  0.1-    141002 291  0.0   0.0
    
    Ephemeris:
    2014 SA324               a,e,i = 2.77, 0.52, 6                   q = 1.3298
    Date    TT    R. A. (2000) Decl.     Delta      r     Elong.  Phase     V
    2014 09 02    01 42 42.1 +18 00 38   0.6629  1.5142   128.6    31.4    22.3
    ...
    2014 09 17    02 10 46.0 +19 20 14   0.5421  1.4473   136.5    28.6    21.7
    ...
    2014 09 25    02 25 26.1 +19 31 01   0.4886  1.4166   141.0    26.4    21.4
    ...
    2014 10 01    02 36 05.4 +19 21 23   0.4537  1.3962   144.6    24.5    21.1
    2014 10 02    02 37 49.7 +19 18 12   0.4483  1.3931   145.3    24.2    21.1
    2014 10 03    02 39 33.3 +19 14 33   0.4431  1.3900   145.9    23.8    21.1
    ...
    2014 10 09    02 49 37.5 +18 42 53   0.4143  1.3729   149.8    21.5    20.8
    ...
    2014 10 17    03 02 04.1 +17 34 48   0.3832  1.3543   155.2    17.9    20.5
    ...
    2014 11 01    03 21 26.0 +14 22 18   0.3483  1.3332   166.0    10.4    20.0
    
    A. U. Tomatic                (C) Copyright 2014 MPC           M.P.E.C. 2014-T08
    

    Read MPEC 2014-T07 Read MPEC 2014-T09


    MPEC number:

    Enter an MPEC number in one of the following forms:

    • 1997-B01 (the full form)
    • J97B01 (the packed version of the full form)
    • B01 (the abbreviated form)